Lid_Strength_Index
3 3 3 4 4 6 6 6 6 7 7 7 6 6 6 6 6 6 6 7 7 7 7 7 6 5 5 4 4 3 2 3 4 7 7 6 6 6 5 7 6 8 6
3 3 3 4 4 5 6 6 7 7 7 7 6 6 6 6 5 5 6 7 7 6 7 7 7 6 6 5 4 4 4 2 4 7 8 9 8 6 7 8 6 7 8
3 5 4 3 3 4 5 7 7 7 7 6 6 6 5 5 6 6 5 5 5 5 6 6 6 7 7 7 6 5 4 3 5 7 8 8 8 8 8 7 8 7 8
4 5 6 4 4 4 5 6 7 7 7 7 7 6 5 4 5 5 6 6 5 5 5 5 5 6 7 7 6 5 5 6 7 8 9 9 8 7 7 8 9 7 7
3 3 4 5 6 6 5 4 6 6 6 6 6 7 7 6 5 6 5 5 5 5 5 4 4 3 3 4 5 6 6 6 7 8 8 8 8 8 9 10 10 9 7
3 3 3 4 6 6 6 5 6 6 6 5 5 6 6 5 4 4 4 5 5 5 6 5 4 4 4 4 3 4 5 6 7 8 8 9 8 8 8 10 9 9 10
4 3 4 4 5 5 3 4 4 5 5 5 4 4 6 6 4 4 4 5 5 5 5 5 5 3 4 4 4 5 5 5 6 7 9 9 9 8 8 9 9 9 8
5 5 4 5 5 5 5 5 6 6 5 3 3 3 4 4 4 5 5 5 5 5 5 5 5 5 4 5 5 6 6 6 6 6 7 8 7 7 7 7 7 7 7
5 5 5 5 6 6 7 7 7 6 5 4 3 3 4 4 4 5 5 5 5 5 4 5 5 5 5 6 5 6 6 6 5 5 6 7 7 7 6 6 7 8 8
5 4 4 4 5 6 7 7 5 6 4 4 4 4 3 5 5 6 6 6 6 5 5 5 5 5 5 7 6 6 7 7 7 6 6 6 6 6 6 6 6 8 8
4 3 3 5 5 6 7 7 6 6 4 5 5 5 4 4 6 6 6 6 6 6 6 5 5 6 6 7 7 6 7 5 6 7 6 6 6 7 7 6 6 6 7
4 3 3 5 5 5 6 7 7 7 7 8 8 6 4 4 4 6 7 6 5 6 6 5 5 6 6 7 7 7 7 6 6 6 5 5 5 5 4 4 4 4 3
4 4 4 5 5 5 7 7 7 7 7 7 7 8 8 6 6 5 6 6 6 6 5 5 5 4 4 4 5 5 5 5 5 6 7 6 5 4 4 4 3 3 3
5 5 5 6 6 6 6 6 6 7 7 7 7 7 7 7 7 6 5 5 5 5 4 5 4 4 4 4 4 4 5 4 4 4 4 4 3 4 4 4 4 4 4
4 4 5 5 5 6 6 5 4 4 4 4 5 5 7 6 5 5 5 5 5 5 5 6 6 6 6 5 4 3 3 4 5 4 4 4 3 4 4 5 5 6 6
5 4 4 5 5 5 5 5 6 5 5 5 5 4 4 5 5 5 5 5 6 6 6 7 6 5 4 4 4 4 4 3 3 3 4 4 4 4 4 5 6 6 6
4 4 4 4 4 4 5 5 6 5 5 6 6 5 5 4 6 6 5 6 6 6 4 5 5 4 4 4 4 3 4 4 3 3 3 3 3 4 5 5 5 5 6
4 4 3 3 3 4 4 5 4 5 4 3 5 5 6 6 6 6 6 7 6 6 5 4 4 4 3 4 4 4 4 4 4 3 3 3 4 4 5 5 5 6 6
4 3 3 3 3 3 3 3 4 4 4 3 4 7 7 6 7 7 8 5 5 5 5 4 4 4 4 4 4 5 6 5 5 4 4 5 5 4 5 5 5 8 8
3 4 4 3 3 3 3 3 3 3 4 4 4 4 5 7 6 4 5 5 4 4 3 3 3 3 3 3 3 4 4 5 4 5 5 5 6 5 7 7 8 9 10
4 4 6 3 3 3 3 4 4 3 4 4 4 4 7 4 4 4 4 5 4 3 3 2 3 3 3 3 3 5 6 5 5 5 6 6 7 8 8 9 9 9 9
3 4 4 4 3 3 3 3 4 5 4 4 4 4 9 5 3 3 3 3 4 3 3 3 3 3 4 3 3 5 5 5 6 7 8 8 8 8 8 8 9 9 8
8 6 6 5 6 7 5 5 5 5 5 5 4 4 7 6 5 3 3 3 3 4 3 3 3 4 4 4 5 4 5 6 6 7 8 8 9 9 9 9 8 9 9
12 11 11 11 11 10 10 9 8 9 8 5 4 4 5 6 5 4 3 3 3 3 3 3 3 4 5 7 7 7 6 6 7 8 8 9 8 9 9 9 9 9 9
13 13 13 13 13 13 13 12 11 11 10 9 8 5 5 5 4 5 5 4 4 4 4 4 4 5 7 8 8 8 10 10 8 9 8 8 8 8 10 10 10 10 10
12 13 13 13 13 13 13 13 13 12 12 12 11 11 9 5 5 6 6 7 7 7 7 7 7 7 8 8 9 11 11 11 11 11 9 10 10 10 11 11 11 12 13